Погода Дивное

Погода Дивное : погода сейчас, прогноз погоды и архив. Всё, что Вы хотите узнать о погоде Дивное!

Хотите узнать прогноз погоды Дивное? Тогда Вам сюда: Погода Дивное

Поиск расширенной информации на нашем сайте:

Другие новости

Новости СМИ2

Главная страница сайта

Новости сайта

02.10.2013

Напоминаем, что на нашем новом сайте вы можете получить высокодетализированные прогнозы погоды по пунктам России, СНГ и мира (включающие важные для авиации метеовеличины, такие как направление и скорость ветра, видимость, явления погоды, количество и форма облачности, нижняя и верхняя граница облачности), а также ознакомиться с разнообразными материалами по авиационной метеорологии и подборкой полезных ссылок на эту тему.

Сайт Метеоцентр.Азия посвящён разработке технологий оптимизации авиаметеорологического обслуживания, включая проектирование и перспективное создание нескольких автоматизированных авиаметеорологических систем:
- система выпуска высокодетальных прогностических карт явлений погоды для нижнего воздушного пространства по России и ближнему зарубежью;
- система верификации прогнозов TAF (выпускаемых синоптиками официальных АМСГ РФ и ближнего зарубежья) и AUTOTAF (выпускаемых сайтом Метеоцентр.Азия) - выявление ошибок, онлайн-сопоставление с фактической погодой METAR, автоматическое внесение коррективов в прогнозы при резком отклонении фактической погоды от прогноза, подсчёт оправдываемости прогнозов по элементам и в целом;
- система обработки, анализа и отображения авиаметеорологической информации для применения провайдерами метеорологической информации.

Рекомендуем: Виза в испанию казань мультивизы оформление визы в казани www.travel-kzn.ru.

Погода Дивное - сегодня

Время (UTC), дата Ветер
(°,м/с) 
Видим.   Явления Облачность Т
(°С)
Тd
(°С)
f(%) Тe
(°С)
Pmin
(гПа)
dP
(гПа)
Po
(мм)
O2
(г/м3)
Тmin Tmax R s Состояние
почвы
09 26.04.17 110 (В) 10 км    4/3 1000 м верхняя 
[Cu hum|Ci sp]
+15.3 +0.5 36 +16  1031.7  -0.8  766  292           
12 26.04.17 100 (В) 10 км    3/3 1500 м 
[Cu med, cong]
+17.3 -0.9 29 +18  1030  -1.6  765  290           
15 26.04.17 120 (ЮВ) 10 км    ясно 
+15.9 -0.8 32 +17  1029.2  -0.9  764  291    +17.4       
18 26.04.17 130 (ЮВ) 10 км    ясно 
+9.6 +1.1 55 +11  1029.9  0.5  764  297           
21 26.04.17 140 (ЮВ) 10 км    ясно 
+7.8 -1.1 53 +7  1029.8  -0.2  764  300           
00 27.04.17 110 (В) 10 км    ясно 
+3.8 -0.2 75 +5  1029.2  -0.7  764  304           
03 27.04.17 110 (В) 4000 м  дымка  ясно 
+3.6 +0.4 80 +4  1029.1  764  304  +2.3        сухая 
06 27.04.17 120 (ЮВ) 3-10{10}  10 км    ясно 
+12.5 +1.2 46 +12  1029  0.2  760  293           
09 27.04.17 120 (ЮВ) 4-10{13}  10 км    ясно 
+18.3 -0.1 29 +19  1027.1  -1.7  763  288           
12 27.04.17 100 (В) 4-11{14}  10 км    ясно 
+20 -0.6 25 +20  1025.2  -1.8  761  286           
15 27.04.17 100 (В) 4-10{13}  10 км    ясно 
+17.6 +1.2 33 +18  1024.8  -0.5  761  288    +20.6       
18 27.04.17 090 (В) 3{10}  10 км    ясно 
+12.4 +3.1 53 +12  1025.8  0.9  761  293           
21 27.04.17 090 (В) 10 км    ясно 
+8.5 +2.6 66 +9  1024.9  -1.1  761  297           
00 28.04.17 080 (В) 4000 м  дымка  ясно 
+6 +2.5 78 +6  1023.2  -1.7  759  299           
03 28.04.17 100 (В) 4000 м  дымка  ясно 
+6.6 +2.9 77 +8  1022.3  -0.9  759  298  +5.7        сухая 
06 28.04.17 120 (ЮВ) 10 км    ясно 
+14.4 +5.6 55 +15  1020.9  -1  758  289           
09 28.04.17 130 (ЮВ) 4{10}  10 км    ясно 
+19.8 +7.3 44 +20  1019.6  -1.1  757  283           
12 28.04.17 140 (ЮВ) 4{11}  10 км    ясно 
+23.4 +6.3 33 +23  1018.4  -1.1  756  280           
15 28.04.17 100 (В) 3{12}  10 км    ясно 
+19.6 +5.3 39 +20  1018.4  0.1  756  283    +24       
18 28.04.17 120 (ЮВ) 2{10}  10 км    ясно 
+12.9 +3.6 53 +13  1019.5  0.9  757  291           
21 28.04.17 120 (ЮВ) 10 км    ясно 
+9.7 +4.1 68 +10  1019.7  0.1  757  294           
00 29.04.17 110 (В) 4000 м  дымка  ясно 
+6.5 +3.4 81 +7  1019.7  0.1  757  297           
03 29.04.17 120 (ЮВ) 4000 м  дымка  ясно 
+6.8 +3.2 78 +8  1019.7  757  297  +5.8        сухая 
06 29.04.17 120 (ЮВ) 10 км    ясно 
+15.3 +6.7 56 +17  1019.5  0.1  757  288           
09 29.04.17 100 (В) 10 км    6/0 средняя, верхняя 
[Ac trans|Ci fib]
+20.1 +8.6 47 +20  1019.2  -0.2  757  283           
Время (UTC), дата Ветер
(°,м/с) 
Видим.   Явления Облачность Т
(°С)
Тd
(°С)
f(%) Тe
(°С)
Pmin
(гПа)
dP
(гПа)
Po
(мм)
O2
(г/м3)
Тmin Tmax R s Состояние
почвы

Для получения пояснительной информации подведите курсор к названию столбца.

ПОГОДА Дивное - архив

Всё, что Вы хотите узнать о погоде Дивное - удобно и подробно!

Выберите нужную дату (начиная с 1 января 2015* года) и нажмите кнопку "Найти".
Будут отображены архивные сводки погоды по пункту Дивное, начиная с указанной даты.


Отображать данные в формате CSV (для использования в таблицах Excel)


Внимание! Наш архив погоды предназначен исключительно для личного некоммерческого использования в познавательных целях. Если Вам необходимы официальные справки о состоянии погоды (для производственных, юридических, коммерческих и т.п. целей), обращайтесь в органы Росгидромета.

*Примечание: данная дата относится к архиву по метеостанциям СССР (Россия, СНГ, Балтия).
Архив по метеостанциям Зарубежной Европы и Азии (кроме Китая) хранится 10 дней, по другим регионам земного шара (Китай, Африка, Америка, Австралия, Океания) - 1 день.

Дивное - район местоположения метеостанции


Название, широта, долгота, высота метеостанции:
Дивное 45.9°ш. 43.3°д. 87 м над ур. моря [Российская Федерация]

Дополнительная информация

В oтличие oт бoльшинства пoгoдных сайтoв мы публикуем пoдрoбную метеoинфoрмацию в детальнoм прoфессиoнальнoм фoрмате.

Характеристики температуры и влажнoсти вoздуха измеряются на высoте 2 м в тени вдали oт зданий и деревьев.
Скoрoсть ветра измеряется на высoте 10 м (на урoвне рoста челoвека скoрoсть ветра ниже в 1.5-2 раза). Если метеoстанция нахoдится в гoрoде или в лесу, тo скoрoсть ветра занижена на 2-4 м/с пo сравнению с oткрытым местoм. Скoрoсть ветра над акватoриями крупных рек и oзёр, а также на вершинах хoлмoв на 2-5 м/с выше, чем в oбычных услoвиях.
Атмoсфернoе давление в разных тoчках местнoсти мoжет значительнo oтличаться oт давления на метеoстанции, в зависимoсти oт услoвий рельефа (при пoдъёме на 10 м давление пoнижается примернo на 1 мм рт.ст.).